Overview Statistics Trail Chart Weather Telemetry Raw packets
 

This is the latest recevied weather packets stored in our database for station/object KI5NXU. If no packets are shown the sender has not sent any weather packets the latest 10 day(s).

<< 16 17 18 19 20 21 22 >>
Time Temp. Humidity Pressure Rain* Wind** Luminosity Snow
1788278085 32.78° C 53% 1017 hPa 0 mm - 654 W/m² -
1788277781 32.22° C 53% 1016.8 hPa 0 mm - 615 W/m² -
1788277481 32.22° C 54% 1016.9 hPa 0 mm - 617 W/m² -
1788277175 32.22° C 54% 1017 hPa 0 mm - 591 W/m² -
1788276870 31.67° C 55% 1017.2 hPa 0 mm - 553 W/m² -
1788276569 31.67° C 55% 1017.1 hPa 0 mm - 555 W/m² -
1788276264 31.11° C 56% 1017 hPa 0 mm - 544 W/m² -
1788275964 31.11° C 56% 1016.8 hPa 0 mm - 498 W/m² -
1788275663 31.11° C 57% 1017 hPa 0 mm - 484 W/m² -
1788275363 30.56° C 57% 1017.1 hPa 0 mm - 470 W/m² -
1788275061 30.56° C 58% 1017 hPa 0 mm - 458 W/m² -
1788274758 30.56° C 58% 1017.2 hPa 0 mm - 409 W/m² -
1788274453 30° C 58% 1017.2 hPa 0 mm - 373 W/m² -
1788274148 30° C 59% 1017.3 hPa 0 mm - 342 W/m² -
1788273844 30° C 59% 1017.1 hPa 0 mm - 317 W/m² -
1788273540 30° C 61% 1017 hPa 0 mm - 295 W/m² -
1788273236 29.44° C 62% 1017.2 hPa 0 mm - 281 W/m² -
1788272932 29.44° C 61% 1017.3 hPa 0 mm - 230 W/m² -
1788272630 28.89° C 61% 1017.2 hPa 0 mm - 252 W/m² -
1788272326 28.89° C 62% 1017.2 hPa 0 mm - 240 W/m² -
1788272021 28.89° C 63% 1017.1 hPa 0 mm - 63 W/m² -
1788271720 28.33° C 63% 1017.2 hPa 0 mm - 197 W/m² -
1788271418 28.33° C 64% 1017.3 hPa 0 mm - 180 W/m² -
1788271113 27.78° C 64% 1017.1 hPa 0 mm - 169 W/m² -
1788270808 27.78° C 64% 1017.2 hPa 0 mm - 156 W/m² -

* Rain latest hour (hover to see other rain measurements)
** Current wind speed in m/s (hover to see current wind gust speed)